Back to catalog

ATLAS 5 CENTAUR DEB

AliveHEO
NORAD 45471·DEBRIS·🇺🇸 United States

Launched Oct 17, 2018 from Cape Canaveral Space Force Station

Loading…

Next Passes (next 24 hours)

TLE

AgingSource: Space-Track

Epoch: Aug 24, 2026, 04:55 UTC

1 45471U 18079BT  26236.20509861 -.00000169  00000-0  00000-0 0  9993
2 45471  13.4555  39.2535 4656645 303.2111  20.3269  1.77786275 43920

Track ATLAS 5 CENTAUR DEB in real time with AllMySat

Download on the App Store